Wind_Speed
17 15 15 16 16 16 16 17 16 13 10 11 9 8 7 7 9 9 10 9 6 6 7 8 10 11 12 13 14 14 15 15 15 13 12 12 12 12 12 12 11 11 11 11 10 9 8 7 6
20 18 17 17 16 16 18 19 17 14 12 12 12 10 7 5 7 8 9 9 7 7 7 8 10 11 13 14 14 15 15 16 15 14 13 13 13 12 12 12 12 12 11 10 9 9 7 6 5
23 22 20 18 16 16 19 21 20 15 13 11 12 11 7 4 7 9 9 10 8 7 8 9 10 11 14 15 15 16 16 16 15 14 14 13 13 13 12 12 12 11 10 10 9 8 7 6 5
25 25 23 20 16 17 21 22 22 17 14 12 14 15 10 6 8 9 10 10 9 9 9 10 11 12 13 15 16 16 16 16 15 14 14 13 13 12 12 11 11 11 10 9 8 8 7 6 5
28 27 25 21 17 19 22 24 23 19 15 15 16 15 12 9 9 9 9 10 10 10 10 11 12 12 13 14 16 17 16 16 15 15 14 14 13 12 12 11 11 10 10 9 8 7 7 6 6
29 30 28 23 21 21 23 25 25 22 17 17 18 16 14 11 9 9 10 11 11 10 11 12 13 13 13 14 15 16 16 16 16 15 15 14 14 13 12 11 11 10 9 8 8 7 7 6 6
29 30 30 26 24 24 25 26 26 24 20 19 22 21 17 13 9 9 10 11 10 10 11 12 13 13 14 14 15 15 16 16 16 15 15 15 14 13 12 12 11 10 9 9 8 7 7 7 7
29 30 30 29 27 25 27 29 28 26 23 22 23 21 18 14 11 11 11 12 12 11 11 12 13 13 14 14 15 15 16 16 16 15 15 15 14 13 12 12 11 10 10 9 9 8 8 8 8
28 30 29 29 29 28 30 32 30 28 27 25 24 21 19 17 14 13 13 14 14 13 12 12 13 13 13 14 14 15 16 16 15 15 15 15 14 13 12 12 12 11 10 10 9 9 9 10 10
27 28 27 29 31 32 34 34 32 30 28 27 25 24 21 21 18 15 13 15 15 14 13 12 12 12 13 14 14 15 15 15 15 15 15 14 14 13 12 12 12 11 11 10 10 10 11 11 11
26 26 27 30 32 34 36 36 34 33 30 28 27 25 23 23 20 16 16 17 18 17 16 13 12 12 12 13 14 14 15 15 15 15 15 14 14 13 12 12 12 12 11 11 11 11 12 13 14
25 26 28 30 33 36 36 37 37 36 32 29 28 28 26 23 20 19 19 19 19 17 17 15 12 12 12 13 14 14 15 15 15 15 14 14 14 13 13 13 13 13 13 12 12 12 13 15 16
25 26 27 30 33 36 37 37 37 37 34 31 29 28 25 22 21 21 22 22 22 19 18 16 13 12 12 13 14 14 15 15 15 15 15 14 14 14 13 13 13 13 13 13 14 15 15 17 18
24 26 27 28 31 34 37 38 38 36 35 34 32 29 27 25 24 24 23 23 22 20 19 17 16 14 13 13 14 14 15 16 16 15 15 16 15 14 14 14 14 15 15 15 15 17 17 18 19
23 24 25 25 27 30 35 37 37 35 36 35 34 32 31 30 28 27 27 25 24 22 20 17 17 15 14 14 15 15 15 15 15 15 16 16 16 16 16 16 16 16 16 17 17 17 18 19 21
21 22 21 20 23 26 31 33 34 36 36 36 35 35 35 33 31 29 29 28 26 23 21 17 17 17 16 14 14 14 15 16 16 16 17 17 17 18 18 18 17 18 18 19 19 19 20 21 22
19 18 17 17 19 21 26 28 31 34 37 38 37 37 36 34 33 31 29 29 27 22 20 19 19 17 15 14 14 14 15 16 17 17 17 18 19 19 19 19 19 20 21 21 21 21 21 22 24
15 15 15 15 15 18 22 25 27 30 34 37 37 37 36 35 35 33 31 29 25 22 20 20 20 18 15 14 13 13 14 16 17 17 16 17 17 18 19 21 21 22 23 23 23 24 24 24 25
15 15 15 15 15 17 20 22 24 26 30 33 34 34 34 35 35 33 32 30 27 25 22 22 20 18 16 15 15 15 15 15 16 16 16 17 17 18 19 20 22 23 24 24 24 25 25 25 26
15 16 15 15 16 17 18 20 22 24 26 28 31 32 33 34 34 33 33 32 27 26 23 22 21 19 19 18 17 17 16 16 16 17 17 17 18 19 20 20 21 23 23 22 24 24 25 25 26
15 16 16 16 17 18 17 19 20 21 23 25 28 30 32 31 32 31 32 31 28 24 24 23 22 23 21 19 18 17 17 18 19 19 20 20 20 20 20 21 21 21 23 24 24 24 25 25 25
15 16 17 18 18 18 20 20 21 21 22 24 27 29 30 31 29 29 29 27 26 25 25 25 22 22 21 20 20 20 20 19 20 21 21 21 21 21 21 20 21 21 21 22 22 23 25 25 26
16 16 19 20 20 21 22 22 23 22 24 24 25 28 30 30 29 28 28 27 26 25 23 23 23 22 21 21 22 21 20 20 21 21 21 20 20 20 20 20 20 21 22 23 24 24 25 27 28
17 17 18 20 20 21 21 23 23 22 22 25 26 26 28 29 28 28 28 27 26 25 24 25 24 24 24 23 23 23 23 24 23 23 23 22 23 22 21 21 22 23 24 26 26 27 28 29 30
18 17 17 18 19 19 19 23 24 23 23 24 24 24 26 26 26 26 27 26 26 27 27 27 26 25 23 23 24 24 25 25 25 24 24 24 24 24 24 25 25 26 27 28 29 29 30 32 33
15 16 16 15 16 16 18 21 21 22 22 23 23 24 25 24 24 24 26 27 27 27 28 29 27 26 25 25 25 25 26 27 27 26 25 26 26 26 27 28 29 29 31 31 32 32 33 35 36
13 15 15 16 16 16 17 18 19 20 21 22 23 24 23 23 25 26 26 27 28 28 28 29 28 27 27 27 27 27 28 29 29 29 29 29 29 30 31 32 33 34 35 35 35 35 36 37 38
11 13 15 16 16 15 15 17 18 20 20 21 22 24 24 24 24 25 25 26 27 26 26 26 28 29 29 29 30 30 31 31 31 31 31 33 33 33 34 35 36 37 37 37 38 38 39 40 40
12 14 15 14 14 16 16 17 18 19 19 19 20 21 23 24 24 23 24 25 26 26 26 26 28 29 30 30 31 31 32 33 33 34 34 34 35 36 37 37 38 38 39 39 40 40 40 41 41
11 13 14 14 14 15 16 17 17 18 18 17 17 19 21 23 24 24 24 25 26 27 27 28 28 30 31 32 32 33 34 34 35 35 35 36 37 37 38 38 38 39 39 40 40 40 40 41 41
Wind_Direction
248 248 247 246 243 238 233 237 244 245 255 253 256 254 270 291 295 297 292 296 283 277 270 257 254 253 251 250 251 252 254 254 253 255 259 266 273 280 286 288 289 291 292 293 291 288 290 293 294
244 244 245 245 244 238 231 236 242 251 263 258 255 249 254 284 286 278 281 294 289 273 267 259 258 257 256 256 256 256 257 256 255 255 258 264 270 276 280 283 284 286 288 289 288 288 290 291 294
241 242 243 244 242 239 232 237 242 253 264 256 248 242 234 262 278 268 273 281 282 277 269 267 268 265 261 259 259 260 259 258 256 255 257 261 268 273 276 278 280 281 283 284 285 286 286 286 292
240 241 242 243 240 238 235 238 248 255 259 247 252 253 250 251 271 272 274 275 277 274 275 275 273 270 267 262 261 262 261 259 257 257 257 260 266 269 271 274 277 278 278 279 281 282 280 281 288
240 240 240 239 237 237 236 239 247 252 253 253 254 254 257 257 268 274 277 276 276 272 273 277 276 270 267 264 261 259 259 258 257 257 257 259 262 266 268 270 273 273 273 273 275 275 276 278 282
241 240 239 237 233 234 235 239 245 250 254 259 258 258 260 251 256 268 276 275 274 273 273 275 275 272 268 264 260 257 256 255 255 255 256 257 259 261 264 266 268 268 267 269 270 270 272 276 280
243 240 237 234 232 232 234 237 242 248 252 259 258 259 259 256 252 263 271 272 274 275 276 275 273 268 265 262 258 254 251 249 251 252 254 254 255 257 259 262 262 262 262 265 265 266 271 276 282
245 242 238 234 232 230 233 237 240 245 252 257 257 258 260 268 271 274 274 273 275 273 271 275 272 266 261 257 255 251 247 246 248 249 250 251 252 253 255 257 257 258 261 263 262 264 270 275 283
250 246 240 236 233 228 231 237 239 244 249 255 258 260 263 269 270 273 267 266 268 268 267 273 270 263 257 253 249 247 244 243 244 245 247 248 249 250 252 254 256 260 263 263 264 268 274 279 286
255 250 241 235 233 229 230 234 237 241 247 252 258 261 265 268 268 267 258 256 259 258 261 267 266 258 252 248 245 243 240 240 241 241 243 244 246 248 250 254 257 263 266 266 270 275 280 284 289
257 252 243 235 232 230 230 232 236 239 243 249 256 261 265 265 265 263 255 252 252 253 253 257 260 256 250 245 242 240 238 238 238 238 238 240 243 246 249 254 259 265 267 270 275 280 283 288 291
259 253 245 237 233 231 229 230 233 238 243 246 251 257 261 264 264 263 258 252 247 247 251 250 251 252 249 244 241 239 238 236 234 234 236 238 241 244 248 252 258 264 267 271 275 279 283 287 290
260 254 248 240 235 232 230 229 231 236 240 245 250 253 255 260 266 262 258 257 251 242 242 245 244 245 246 243 242 239 236 234 234 235 236 238 240 243 248 253 258 264 268 272 275 279 284 286 289
261 255 250 244 238 234 232 229 230 232 237 243 248 252 254 258 263 263 262 261 253 238 238 242 238 242 241 238 236 234 233 234 235 235 236 235 236 241 248 252 259 264 268 271 276 280 283 287 290
261 258 254 250 243 238 236 232 231 231 235 239 244 248 253 257 261 264 264 264 259 252 246 232 233 233 235 235 234 232 232 233 235 237 239 236 238 242 246 251 258 263 268 272 276 279 281 286 288
262 260 256 252 246 239 239 235 230 229 232 236 240 245 250 255 259 263 266 265 259 254 240 239 231 226 227 232 233 237 237 236 238 240 240 241 245 247 249 253 257 263 269 273 275 278 279 281 283
259 256 252 244 239 235 237 235 228 228 231 234 237 241 246 252 256 261 265 265 259 252 242 242 229 227 225 227 233 241 242 241 241 243 245 250 252 252 254 255 259 265 270 272 275 277 277 280 281
252 248 242 232 224 229 233 233 228 227 230 234 237 241 245 249 254 258 262 261 254 249 251 247 238 236 228 229 234 238 242 241 244 248 250 253 254 254 257 258 262 267 271 272 274 275 276 280 281
242 238 230 217 212 223 229 229 225 227 228 231 235 239 243 246 252 255 256 257 255 252 252 250 245 235 230 232 234 238 239 241 246 250 254 256 260 263 264 266 269 272 274 273 274 276 276 278 280
236 231 224 211 210 222 228 229 225 225 227 231 233 237 243 246 248 253 254 255 254 252 248 251 247 239 237 237 241 244 247 247 250 254 257 261 266 270 270 274 275 274 274 273 273 276 276 277 280
233 232 224 217 215 218 226 231 229 229 230 233 235 238 242 246 247 252 255 253 253 247 245 247 248 243 242 244 247 251 252 256 256 258 260 264 268 273 277 278 279 277 276 275 277 276 277 278 280
233 230 227 220 215 219 224 232 232 233 235 236 237 240 244 247 249 251 258 256 254 253 253 251 249 252 250 251 252 255 256 262 262 262 263 267 270 273 280 282 278 277 278 279 280 279 276 277 280
236 235 230 225 224 223 226 233 234 237 240 241 242 244 245 246 251 254 258 258 256 256 255 257 259 258 252 253 255 256 262 269 271 268 269 277 280 282 286 288 285 283 282 282 282 281 280 280 282
239 240 237 232 232 230 229 236 237 237 241 242 244 247 249 250 251 254 257 256 258 259 259 261 263 261 258 257 259 262 267 272 275 275 278 281 283 284 287 290 290 289 286 284 285 285 283 283 284
240 241 239 236 234 233 233 239 241 242 241 242 244 247 251 253 254 254 254 256 258 259 261 262 262 261 258 258 262 266 269 274 276 280 284 283 284 283 285 287 289 287 287 288 288 286 284 285 285
234 233 234 236 230 230 233 240 245 247 246 248 248 250 252 252 253 254 257 257 256 257 259 260 263 264 261 263 266 270 275 278 279 281 281 281 284 284 284 286 287 287 286 287 285 285 285 285 286
224 226 229 237 234 237 242 248 251 251 254 254 253 252 252 253 251 251 254 254 255 258 259 258 261 265 267 269 270 272 275 277 279 279 279 280 282 282 283 284 286 287 287 287 287 287 286 287 288
222 218 227 234 238 242 248 257 259 256 264 264 259 252 252 254 253 252 253 254 254 257 259 259 261 264 266 268 270 271 274 276 277 278 280 281 282 282 283 285 285 285 286 286 286 286 286 288 289
221 221 226 232 241 253 263 269 271 274 273 265 259 252 249 250 253 255 254 254 255 256 258 259 260 263 265 267 268 271 273 274 276 278 279 279 280 282 283 285 285 286 286 286 286 287 288 289 289
223 224 231 238 247 262 272 280 284 290 286 280 265 252 250 251 254 255 257 256 256 257 258 260 262 264 266 268 270 271 272 274 275 277 278 279 281 282 283 284 284 285 286 286 286 288 289 290 289
Height
5891 5892 5893 5894 5895 5895 5895 5895 5894 5894 5895 5894 5893 5893 5893 5895 5898 5901 5900 5899 5900 5900 5901 5901 5902 5903 5904 5904 5905 5906 5906 5907 5908 5908 5909 5909 5909 5909 5909 5908 5908 5907 5907 5906 5905 5904 5904 5903 5903
5888 5889 5890 5891 5892 5892 5893 5892 5892 5892 5893 5891 5890 5890 5890 5893 5895 5897 5898 5898 5899 5899 5899 5900 5900 5901 5902 5903 5903 5904 5905 5906 5906 5907 5907 5908 5908 5907 5907 5907 5907 5906 5905 5905 5904 5903 5903 5903 5902
5884 5886 5887 5888 5889 5890 5890 5890 5890 5890 5891 5889 5888 5886 5886 5890 5894 5896 5896 5897 5897 5898 5898 5898 5898 5899 5900 5901 5901 5902 5903 5904 5905 5905 5906 5906 5906 5906 5906 5906 5905 5905 5904 5904 5903 5902 5902 5901 5901
5881 5882 5884 5886 5887 5887 5887 5887 5888 5888 5888 5888 5886 5884 5884 5889 5892 5893 5894 5895 5895 5896 5896 5896 5897 5897 5898 5898 5899 5900 5901 5902 5903 5903 5904 5904 5904 5904 5904 5904 5904 5904 5903 5903 5902 5901 5901 5900 5900
5876 5878 5880 5882 5884 5884 5884 5884 5885 5885 5885 5884 5883 5882 5882 5885 5888 5890 5891 5892 5893 5893 5894 5894 5894 5895 5895 5896 5897 5898 5899 5900 5901 5901 5902 5902 5902 5902 5902 5902 5902 5902 5902 5901 5901 5900 5900 5899 5899
5871 5873 5875 5878 5880 5880 5880 5881 5881 5882 5882 5880 5879 5879 5881 5882 5885 5887 5888 5889 5890 5890 5891 5892 5892 5892 5893 5893 5894 5895 5896 5897 5898 5899 5900 5900 5900 5900 5900 5900 5900 5900 5900 5900 5899 5899 5898 5898 5897
5866 5867 5870 5874 5876 5877 5877 5877 5877 5877 5878 5878 5876 5876 5878 5880 5882 5884 5885 5886 5887 5888 5888 5889 5889 5889 5890 5890 5891 5892 5893 5894 5895 5896 5897 5897 5897 5897 5898 5898 5898 5898 5898 5898 5897 5897 5896 5896 5895
5859 5862 5865 5868 5871 5874 5873 5871 5872 5873 5874 5874 5873 5874 5875 5877 5880 5882 5883 5884 5885 5885 5886 5886 5886 5886 5887 5887 5888 5889 5890 5891 5892 5893 5894 5894 5895 5895 5895 5895 5896 5896 5896 5895 5895 5895 5894 5894 5894
5853 5857 5860 5863 5866 5869 5867 5866 5867 5868 5869 5870 5870 5871 5873 5873 5876 5879 5880 5881 5883 5883 5883 5883 5883 5883 5884 5884 5885 5886 5887 5888 5889 5890 5891 5891 5892 5892 5892 5893 5893 5893 5893 5893 5893 5893 5893 5892 5892
5848 5851 5855 5857 5859 5861 5861 5861 5862 5863 5864 5866 5868 5868 5869 5870 5872 5875 5878 5879 5880 5880 5881 5881 5881 5880 5880 5881 5881 5882 5883 5884 5885 5886 5887 5888 5888 5889 5890 5890 5891 5891 5891 5891 5891 5891 5891 5890 5890
5842 5845 5847 5849 5851 5854 5855 5857 5857 5859 5860 5862 5864 5864 5866 5868 5869 5872 5875 5876 5876 5877 5878 5878 5877 5877 5877 5878 5878 5879 5880 5881 5882 5883 5884 5885 5885 5886 5887 5887 5888 5888 5889 5889 5889 5889 5888 5888 5887
5836 5838 5840 5842 5844 5846 5849 5851 5853 5854 5856 5858 5860 5862 5863 5864 5865 5869 5871 5873 5872 5873 5874 5874 5874 5874 5874 5875 5875 5876 5877 5878 5879 5880 5881 5882 5882 5883 5884 5884 5885 5885 5886 5886 5886 5886 5885 5885 5884
5830 5831 5833 5835 5837 5839 5842 5845 5847 5849 5852 5853 5855 5857 5859 5860 5862 5864 5866 5868 5868 5868 5869 5870 5870 5870 5871 5872 5872 5873 5874 5874 5875 5877 5878 5878 5879 5880 5881 5881 5881 5882 5882 5883 5882 5882 5882 5881 5880
5824 5825 5826 5828 5831 5833 5835 5839 5842 5845 5847 5848 5850 5852 5854 5856 5857 5859 5861 5862 5862 5863 5864 5865 5866 5867 5867 5868 5869 5870 5870 5871 5871 5873 5874 5875 5875 5876 5877 5877 5878 5878 5878 5879 5879 5878 5878 5877 5876
5818 5819 5821 5824 5825 5827 5829 5833 5837 5840 5842 5844 5846 5848 5850 5851 5853 5855 5856 5857 5858 5859 5859 5861 5862 5862 5864 5864 5865 5866 5866 5867 5867 5869 5870 5871 5872 5872 5873 5874 5874 5874 5874 5874 5874 5874 5873 5872 5871
5813 5815 5817 5819 5820 5821 5824 5827 5831 5833 5835 5838 5841 5842 5845 5846 5848 5850 5851 5852 5854 5854 5855 5857 5857 5858 5859 5860 5861 5862 5862 5863 5863 5864 5865 5866 5867 5868 5868 5869 5870 5870 5869 5869 5869 5869 5868 5867 5866
5809 5810 5811 5813 5814 5815 5817 5819 5823 5826 5828 5831 5834 5837 5839 5841 5843 5845 5846 5846 5846 5847 5849 5851 5851 5853 5854 5856 5857 5858 5858 5859 5859 5859 5861 5862 5862 5863 5863 5864 5864 5864 5864 5864 5864 5863 5862 5861 5860
5804 5805 5806 5808 5809 5810 5811 5813 5816 5819 5822 5825 5829 5832 5834 5836 5838 5839 5840 5840 5839 5841 5844 5845 5845 5847 5849 5851 5852 5853 5854 5855 5855 5855 5856 5857 5857 5857 5857 5858 5858 5858 5858 5858 5858 5857 5857 5856 5854
5799 5800 5802 5803 5804 5804 5805 5808 5811 5814 5817 5821 5824 5827 5829 5831 5833 5834 5834 5834 5834 5835 5838 5839 5838 5840 5843 5845 5847 5848 5849 5850 5850 5850 5850 5851 5851 5851 5852 5852 5852 5853 5853 5852 5852 5851 5851 5850 5848
5796 5797 5798 5800 5801 5800 5802 5804 5807 5809 5812 5816 5819 5822 5824 5825 5827 5828 5829 5830 5829 5830 5832 5834 5836 5836 5838 5840 5842 5843 5844 5845 5845 5845 5845 5845 5845 5845 5846 5846 5846 5846 5846 5845 5845 5845 5844 5843 5841
5792 5793 5794 5796 5797 5797 5799 5801 5803 5805 5808 5811 5814 5817 5819 5819 5820 5822 5823 5824 5824 5825 5827 5829 5830 5830 5832 5834 5836 5838 5839 5839 5840 5840 5841 5840 5840 5840 5840 5840 5840 5839 5839 5839 5838 5838 5837 5836 5835
5787 5789 5790 5791 5793 5794 5796 5797 5800 5802 5804 5806 5808 5811 5813 5815 5816 5817 5818 5818 5819 5820 5822 5822 5822 5825 5827 5829 5831 5832 5833 5833 5834 5834 5835 5835 5835 5834 5834 5834 5833 5833 5832 5832 5831 5830 5830 5829 5828
5783 5785 5786 5787 5789 5791 5792 5794 5797 5798 5800 5802 5804 5806 5808 5810 5811 5812 5813 5813 5814 5816 5817 5818 5820 5821 5822 5824 5826 5827 5827 5827 5828 5828 5828 5828 5829 5828 5828 5828 5827 5826 5825 5825 5824 5823 5822 5821 5820
5780 5781 5782 5783 5785 5787 5790 5791 5792 5795 5796 5798 5800 5801 5802 5803 5806 5807 5808 5810 5811 5812 5813 5814 5815 5816 5817 5819 5820 5821 5821 5821 5821 5821 5821 5822 5823 5822 5821 5821 5820 5819 5818 5817 5816 5815 5814 5812 5811
5776 5778 5779 5780 5782 5784 5786 5786 5788 5790 5792 5793 5794 5796 5796 5798 5800 5801 5802 5804 5806 5807 5808 5809 5809 5810 5812 5813 5814 5814 5815 5816 5816 5816 5816 5816 5815 5814 5814 5813 5813 5812 5810 5809 5808 5807 5805 5803 5802
5772 5774 5776 5778 5779 5781 5782 5782 5784 5786 5787 5787 5788 5789 5791 5792 5794 5796 5797 5798 5800 5801 5802 5803 5803 5804 5805 5806 5807 5808 5809 5809 5809 5809 5809 5808 5808 5807 5807 5806 5805 5804 5802 5801 5799 5798 5796 5794 5792
5769 5771 5773 5775 5776 5777 5778 5779 5780 5781 5782 5782 5783 5784 5785 5786 5788 5789 5791 5792 5794 5795 5795 5796 5798 5798 5799 5800 5801 5801 5802 5802 5801 5801 5801 5801 5800 5800 5799 5798 5797 5795 5793 5792 5790 5788 5786 5783 5781
5767 5769 5770 5772 5773 5773 5775 5775 5775 5776 5777 5778 5778 5779 5780 5781 5782 5783 5785 5786 5788 5789 5790 5791 5792 5792 5793 5794 5794 5795 5795 5794 5794 5794 5793 5793 5792 5791 5790 5789 5787 5786 5784 5782 5780 5777 5775 5773 5770
5766 5767 5767 5769 5770 5771 5772 5774 5772 5772 5772 5772 5772 5773 5774 5775 5777 5777 5779 5780 5782 5783 5784 5785 5786 5786 5787 5787 5787 5788 5787 5786 5786 5786 5785 5784 5783 5782 5781 5779 5777 5775 5774 5771 5769 5767 5764 5762 5759
5763 5764 5766 5767 5768 5768 5769 5772 5768 5768 5767 5766 5766 5767 5768 5769 5771 5772 5773 5774 5775 5776 5777 5778 5779 5779 5779 5779 5779 5779 5779 5778 5778 5777 5776 5775 5774 5772 5770 5769 5767 5765 5763 5761 5759 5756 5753 5750 5748